Location: �bnet
(46.9957°N, 8.4908°E)
Time: 14:08:20
(UTC+00:00)

Daily predictions for brighter satellites

Satellite Brightness Start Highest point End
(mag) Time Altitude Azimuth Time Altitude Azimuth Time Altitude Azimuth
Cosmos 1745 Rocket 4.0 19:16:16 10° N 19:22:28 68° E 19:28:34 10° SSE
Cosmos 1709 Rocket 4.5 19:18:59 10° N 19:24:46 42° ENE 19:30:31 10° SE
BREEZE-M DEB (TANK) 3.9 19:25:06 10° W 19:29:21 71° SSW 19:36:59 10° ESE
Cosmos 1666 Rocket 4.1 19:26:08 10° N 19:30:18 41° ENE 19:34:25 10° SE
USA 307 4.1 19:30:13 10° NW 19:34:14 38° NNE 19:38:16 10° E
Cosmos 1437 4.3 19:33:36 10° SE 19:35:23 15° E 19:37:11 10° NE
Cosmos 968 Rocket 4.1 19:32:25 10° SSW 19:37:38 64° WNW 19:42:50 10° NNE
NOSS 3-3 (A) 4.2 19:33:04 10° S 19:38:26 44° ESE 19:44:28 10° NE
NOSS 3-3 (C) 4.2 19:33:11 10° S 19:38:32 43° ESE 19:44:34 10° NE
Intercosmos 24 3.6 19:37:32 10° S 19:41:12 71° E 19:44:49 10° NNE
ATLAS 2AS CENTAUR R/B 4.3 19:34:56 10° NW 19:41:26 30° NNE 19:47:33 10° E
Cosmos 1354 Rocket 4.1 19:36:36 10° S 19:41:43 58° ESE 19:46:53 10° NNE
S3M 4.1 19:37:20 10° S 19:43:43 84° E 19:50:05 10° N
Sich 1 3.1 19:40:11 10° N 19:44:33 87° WSW 19:48:54 10° S
USA 245 4.3 19:43:37 10° E 19:44:41 13° ENE 19:45:51 10° NE
SJ 16-02 3.1 19:42:35 11° SE 19:44:44 14° E 19:47:06 10° ENE
OBJECT-B 2.6 19:43:40 10° SSW 19:46:34 30° W 19:49:31 10° NNW
Meteor 1-26 Rocket 4.4 19:42:06 10° S 19:47:36 53° E 19:52:58 10° NNE
SPOT 1/Viking Rocket 4.2 19:42:57 10° SE 19:47:45 41° ENE 19:52:36 10° N
USA 308 3.9 19:43:49 10° NW 19:47:55 42° NNE 19:52:02 10° E
Cosmos 2315 Rocket 4.3 19:43:23 10° SSE 19:49:30 52° E 19:55:40 10° NNE
Cosmos 1500 4.0 19:50:01 10° N 19:53:27 33° ENE 19:56:08 15° SE
BREEZE M DEB (TANK) 2.7 19:51:15 10° W 19:57:13 60° N 19:59:38 10° E
Terra 3.6 19:54:15 10° ESE 19:57:26 18° ENE 20:00:37 10° NNE
Cosmos 2082 Rocket 3.5 19:54:38 10° N 19:59:28 28° NE 20:03:59 11° ESE
OE (NEXTSAT) 4.4 19:58:09 10° W 20:01:34 60° SSW 20:04:07 17° ESE
Cosmos 1151 Rocket 3.1 19:57:47 10° S 20:02:05 63° E 20:06:26 10° NNE
SPOT 3 Rocket 3.5 19:57:07 10° SSE 20:02:17 84° ENE 20:07:28 10° NNW
X-37B 1.5 19:59:57 10° W 20:02:54 34° SSW 20:04:43 19° SE
SPOT 5 4.2 19:59:20 13° ESE 20:03:03 29° ENE 20:07:34 10° N
CREW DRAGON DEMO-1 DEB 3.5 20:00:38 10° WNW 20:03:11 41° NNE 20:05:17 13° E
Cosmos 1437 Rocket 4.5 19:59:42 10° SW 20:03:18 36° WNW 20:07:00 10° N
COSMOS 2406 3.6 20:00:35 10° NNW 20:06:10 53° ENE 20:10:34 16° SE
Cosmos 2084 3.3 20:02:37 10° SSW 20:06:42 61° SE 20:10:53 10° NE
Resurs 01 Rocket 1.7 20:02:30 10° S 20:06:57 79° WSW 20:11:25 10° NNW
USA 290 3.9 20:05:23 10° NW 20:08:16 29° WSW 20:11:05 10° SSW
Cosmos 1933 4.2 20:09:52 10° SSW 20:13:49 52° WNW 20:17:46 10° N
Cosmos 1538 Rocket 4.5 20:09:48 10° NNW 20:15:03 50° ENE 20:18:46 18° SE
Cosmos 773 Rocket 4.0 20:13:08 10° NNW 20:18:29 87° WSW 20:22:41 16° SSE
MetOp-B 4.2 20:15:10 13° SSE 20:20:03 88° WSW 20:25:27 10° NNW
Cosmos 1271 Rocket 4.0 20:19:16 21° ESE 20:20:39 25° E 20:23:59 10° NE
Cosmos 2278 Rocket 2.4 20:19:26 10° S 20:24:51 50° ESE 20:30:19 10° NE
Spot 2 Rocket 3.6 20:22:06 19° SSE 20:25:43 64° ENE 20:30:43 10° N
BREEZE-M DEB (TANK) 1.9 20:24:34 10° WNW 20:26:41 46° N 20:27:56 20° ENE
Landsat 7 4.1 20:23:02 12° S 20:27:24 66° WSW 20:32:10 10° NNW
Cosmos 1782 3.1 20:23:29 10° SSW 20:27:27 67° W 20:31:27 10° N
IGS 5A 4.1 20:24:31 11° S 20:28:24 51° W 20:32:28 10° NNW
USA 305 3.2 20:24:16 10° NW 20:28:31 64° NNE 20:31:22 20° ESE
Cosmos 1242 Rocket 4.2 20:26:53 10° SW 20:30:10 34° WNW 20:33:26 10° N
Cosmos 1943 Rocket 4.2 20:32:27 11° E 20:32:27 11° E 20:33:27 10° E
Cosmos 1515 Rocket 3.6 20:29:37 18° S 20:32:47 60° E 20:37:08 10° NNE
ERS-1 Rocket 3.3 20:30:20 22° SE 20:33:22 51° ENE 20:38:14 10° N
BREEZE-M DEB (TANK) 4.2 20:26:55 10° WNW 20:33:49 31° SW 20:35:39 19° S
CZ-4C R/B 3.0 20:30:32 10° NW 20:37:47 83° SW 20:43:47 21° SSE
Cosmos 1633 Rocket 4.0 20:35:30 10° NNW 20:39:44 46° W 20:43:38 12° SSW
Meteor 1-11 Rocket 4.2 20:38:48 10° N 20:44:38 51° ENE 20:47:53 25° SE
deb Kosmos-1763 3.9 20:43:09 10° NNW 20:46:43 80° ENE 20:47:57 38° SSE
ATLAS 5 CENTAUR R/B 3.6 20:41:45 10° NW 20:46:55 34° WSW 20:51:47 14° S
USA 306 2.9 20:43:35 10° WNW 20:47:52 81° NNE 20:49:58 29° ESE
Cosmos 1812 2.7 20:47:18 20° SSW 20:49:54 82° W 20:53:47 10° N
Cosmos 1328 Rocket 4.3 20:45:39 10° SSW 20:49:58 52° WNW 20:54:18 10° N
Cosmos 1777 Rocket 4.1 20:46:38 10° SSW 20:51:49 76° WNW 20:57:03 10° NNE
Cosmos 1470 Rocket 4.0 20:47:38 10° NNW 20:52:05 60° W 20:55:01 20° S
Cosmos 1340 Rocket 4.3 20:51:04 10° NNE 20:54:27 24° ENE 20:55:28 22° E
ARIANE 5 R/B 2.7 20:52:22 26° S 20:54:45 74° WSW 20:59:06 10° NNW
CARTOSAT-1 3.7 20:56:43 28° S 20:58:56 72° WSW 21:03:16 10° NNW
Cosmos 1666 2.6 20:55:23 10° N 20:59:08 82° W 21:00:28 38° S
Meteor 2-12 Rocket 4.5 20:56:11 10° N 21:02:15 65° ENE 21:05:22 29° SSE
Cosmos 1833 Rocket 3.0 20:58:22 10° NNW 21:03:57 60° WSW 21:07:04 26° S
Meteor 1-5 Rocket 4.4 20:59:46 10° NNW 21:05:06 64° W 21:08:22 23° S
Cosmos 1933 Rocket 3.8 21:02:02 10° NNW 21:06:20 64° W 21:08:26 29° SSW
Cosmos 2154 Rocket 4.1 21:00:13 10° N 21:06:32 64° ENE 21:09:42 30° SSE
BREEZE-M R/B 2.7 21:04:20 10° W 21:06:41 46° N 21:07:49 26° ENE
SL-24 DEB 4.4 21:05:35 36° SE 21:07:10 54° E 21:11:40 10° N
Cosmos 923 Rocket 4.2 21:02:43 10° NNW 21:07:57 62° ENE 21:10:12 33° SE
Cosmos 1898 Rocket 4.3 21:07:15 30° ESE 21:08:11 32° E 21:12:52 10° NE
Meteor 1-10 Rocket 4.1 21:05:30 21° S 21:09:20 86° E 21:15:02 10° NNE
Cosmos 1536 3.2 21:05:44 10° N 21:09:41 50° ENE 21:10:33 42° ESE
Cosmos 2184 Rocket 4.0 21:07:43 10° N 21:13:58 81° W 21:17:33 27° S
Cosmos 1743 3.8 21:10:37 10° N 21:14:02 30° ENE 21:14:28 29° E
USA 307 2.8 21:10:13 10° WNW 21:14:30 75° SW 21:15:37 47° SE
H-2A R/B 3.4 21:13:04 10° NNE 21:17:15 65° ESE 21:18:18 46° SSE
Cosmos 2074 Rocket 4.1 21:12:11 10° NNW 21:18:29 73° W 21:22:13 26° S
NOSS 3-4 (A) 3.8 21:13:00 10° NW 21:20:00 83° SW 21:24:07 31° SSE
NOSS 3-4 (C) 3.8 21:13:07 10° NW 21:20:07 84° SW 21:24:12 31° SSE
Cosmos 990 Rocket 4.2 21:20:01 38° SSE 21:21:29 50° ESE 21:26:34 10° NNE
SJ 16-02 1.7 21:19:30 18° SSW 21:22:45 64° WNW 21:27:10 10° NNE
Nadezhda 1 Rocket 3.9 21:19:52 29° S 21:23:20 76° E 21:29:34 10° NNE
Cosmos 2297 4.2 21:22:46 35° SE 21:23:50 38° ESE 21:29:04 10° NE
Cosmos 1733 Rocket 4.1 21:23:17 10° N 21:27:09 31° ENE 21:27:49 30° E
USA 308 3.0 21:23:50 10° WNW 21:28:05 61° SW 21:28:43 53° S
ATLAS 2AS CENTAUR R/B 2.8 21:26:09 10° NW 21:33:37 77° NE 21:37:04 33° SE
Terra 2.0 21:33:01 39° S 21:34:41 65° WSW 21:39:27 10° NNW
Iridium 4 Rocket 4.4 21:30:58 19° SSW 21:34:59 54° W 21:40:48 10° N
USA 215 4.4 21:30:05 10° E 21:36:07 41° NNE 21:42:09 10° NW
Cosmos 1544 2.9 21:33:23 10° N 21:37:00 74° E 21:37:03 73° E
SPOT 5 3.8 21:38:33 27° SSW 21:40:53 44° W 21:45:57 10° NNW
Cosmos 1610 Rocket 4.5 21:35:12 10° NNW 21:41:20 76° W 21:44:05 35° S
ERBS 4.1 21:39:23 10° NW 21:42:15 27° NNE 21:43:15 23° NE
Cosmos 2082 Rocket 2.5 21:38:24 10° NW 21:43:54 56° WSW 21:45:50 37° SSW
Cosmos 158 Rocket 4.5 21:40:44 10° NNW 21:45:23 46° WSW 21:46:51 35° SSW
Cosmos 2181 Rocket 4.5 21:44:38 36° SE 21:46:15 43° E 21:52:00 10° NNE
Cosmos 2112 Rocket 4.0 21:41:16 10° NNW 21:46:39 84° ENE 21:48:11 49° SSE
Cosmos 2228 Rocket 3.7 21:45:34 31° SW 21:47:22 53° WNW 21:51:46 10° N
Cosmos 44 3.5 21:44:58 10° NW 21:50:27 77° NE 21:51:59 47° SE
Cosmos 967 Rocket 4.5 21:49:30 40° S 21:51:30 58° ESE 21:57:40 10° NE
Cosmos 2366 rocket 4.4 21:47:57 10° N 21:53:56 49° ENE 21:55:56 37° ESE
Spot 4 4.4 21:55:19 41° ESE 21:56:20 48° ENE 22:01:01 10° N
Cosmos 2084 Rocket 3.8 21:54:16 10° NW 21:58:30 60° NE 21:59:14 51° E
BREEZE-M DEB (TANK) 4.3 21:55:34 10° W 22:01:36 37° NNW 22:03:26 17° NE
Cosmos 2341 Rocket 4.0 21:55:28 10° N 22:01:55 85° E 22:04:08 44° SSE
Meteor 1-27 Rocket 4.2 21:58:45 26° SW 22:02:00 59° WNW 22:07:52 10° N
Cosmos 1515 3.8 22:04:29 65° NE 22:04:29 65° NE 22:07:52 10° NNE
USA 305 4.3 22:04:31 10° WNW 22:07:27 27° WSW 22:07:27 27° WSW
Cosmos 2278 Rocket 3.9 22:04:10 10° WSW 22:09:10 31° NW 22:14:13 10° NNE
Cosmos 1937 Rocket 3.3 22:09:32 59° S 22:10:27 77° ESE 22:15:38 10° NNE
Cosmos 1862 Rocket 3.6 22:10:40 63° E 22:10:40 63° E 22:14:54 10° NNE
SL-24 R/B - RUBIN 2 3.8 22:06:57 10° NW 22:12:25 73° WSW 22:13:07 63° S
Cosmos 1680 Rocket 4.0 22:08:35 10° NNW 22:13:44 51° WSW 22:14:52 43° SW
Cosmos 1943 Rocket 2.1 22:13:55 54° S 22:15:04 71° ESE 22:20:40 10° NNE
Cosmos 2218 Rocket 4.0 22:10:06 10° N 22:16:24 74° E 22:18:16 48° SSE
Cosmos 2369 Rocket 2.7 22:17:10 40° ESE 22:17:18 40° ESE 22:22:33 10° NE
Meteor 1-19 Rocket 4.0 22:19:24 59° SSE 22:20:20 72° E 22:25:44 10° NNE
Gbstr 26 Del rocket 4.0 22:13:20 10° WNW 22:20:47 84° NNE 22:23:48 34° ESE
Cosmos 1238 Rocket 3.7 22:17:42 10° N 22:23:57 79° W 22:25:13 55° SSW
Cosmos 858 Rocket 4.4 22:24:21 55° SSW 22:25:30 84° WNW 22:30:47 10° NNE
Meteor 2-9 Rocket 4.2 22:21:32 10° NNW 22:27:22 89° W 22:28:36 58° S
Okean 1 3.5 22:29:36 67° WNW 22:29:36 67° WNW 22:33:28 10° N
Okean 1-7 4.1 22:31:00 33° ENE 22:31:00 33° ENE 22:34:22 10° NNE
Cosmos 1340 Rocket 4.1 22:27:18 10° NNW 22:30:55 31° W 22:31:03 30° W
Cosmos 1818 3.5 22:27:55 10° NW 22:33:25 76° WSW 22:34:12 64° S
Cosmos 1707 Rocket 4.5 22:32:59 36° WSW 22:33:51 41° WNW 22:38:01 10° N
Cosmos 1656 Rocket 4.4 22:35:34 35° ESE 22:35:34 35° ESE 22:40:22 10° NE
DNEPR-1 R/B 4.0 22:34:46 43° SW 22:36:41 84° NW 22:41:40 10° NE
SL-8 Rocket 4.1 22:33:28 10° NNW 22:39:44 66° W 22:41:32 46° SSW
ALOS 2 2.6 22:41:06 72° E 22:41:10 72° ENE 22:45:32 10° N
Meteor 2-4 Rocket 3.7 22:47:04 60° SSE 22:48:00 73° E 22:53:39 10° NNE
SL-27 R/B 4.1 22:51:33 10° N 22:53:51 28° NE 22:53:51 28° NE
SL-08 R/B 4.4 22:50:44 10° N 22:56:59 84° E 22:58:29 55° SSE
BREEZE-M DEB (TANK) 4.0 22:42:16 10° WNW 22:57:10 80° SSW 22:58:40 50° SE
Cosmos 1975 3.6 22:57:09 10° NNW 23:00:28 45° WNW 23:00:28 45° WNW
RESURS DK-1 2.7 22:59:33 10° NNW 23:03:31 61° NE 23:03:31 61° NE
Cosmos 2150 Rocket 4.2 23:04:29 56° ESE 23:04:42 56° ESE 23:09:53 10° NNE
Cosmos 1461 3.4 23:07:22 59° W 23:07:56 66° NW 23:12:32 10° NNE
Cosmos 372 Rocket 4.2 23:07:02 52° WSW 23:07:57 62° WNW 23:13:02 10° NNE
Cosmos 1833 4.3 23:02:16 10° NNW 23:08:02 73° ENE 23:09:23 53° SE
Cosmos 2242 Rocket 3.5 23:09:01 82° NNW 23:09:01 82° NNW 23:13:21 10° N
SeaSat 1 3.3 23:04:24 10° NE 23:08:32 36° E 23:08:32 36° E
Meteor 1-12 Rocket 4.4 23:05:39 10° N 23:11:32 69° ENE 23:12:43 54° SE
ISS -1.3 23:18:16 17° ENE 23:18:16 17° ENE 23:19:13 10° ENE
Cosmos 468 4.3 23:12:41 10° NNW 23:18:00 85° WSW 23:18:27 74° S
USA 215 3.3 23:13:57 20° ESE 23:18:40 77° NNE 23:25:12 10° NW
Cosmos 494 Rocket 3.9 23:14:17 10° NNW 23:19:30 76° ENE 23:20:07 66° ESE
Cosmos 1908 Rocket 4.2 23:15:36 10° NNW 23:19:43 48° W 23:19:43 48° W
Cosmos 1300 Rocket 4.3 23:17:19 10° N 23:21:33 43° ENE 23:21:41 43° E
Okean 2 Rocket 4.1 23:19:32 10° N 23:23:38 36° ENE 23:23:56 36° E
ATLAS 2AS CENTAUR R/B 3.9 23:18:05 10° WNW 23:23:47 26° WSW 23:24:29 26° WSW
Nimbus 7 Rocket 4.3 23:19:24 10° NNE 23:25:19 84° WNW 23:26:37 57° SSW
Cosmos 1867 3.4 23:25:56 70° SSW 23:26:35 85° SE 23:32:06 10° NE
Cosmos 1125 Rocket 3.4 23:26:49 67° SE 23:27:07 69° ESE 23:32:19 10° NNE
Cosmos 44 Rocket 4.0 23:24:26 10° NNW 23:29:36 54° NE 23:31:23 36° ESE
Cosmos 1378 3.9 23:34:53 51° N 23:34:53 51° N 23:37:47 10° N
ATLAS CENTAUR R/B 2.2 23:38:29 40° NE 23:38:29 40° NE 23:41:04 10° NE
Cosmos 2344 4.3 23:30:42 10° NW 23:39:58 89° NE 23:51:08 15° SE
Cosmos 1821 Rocket 4.2 23:33:41 10° NNW 23:40:01 63° W 23:41:25 51° SW
Cosmos 1934 Rocket 3.9 23:34:30 10° N 23:40:41 78° E 23:42:10 53° SSE
USA 281 4.2 23:36:59 14° ESE 23:42:12 41° NE 23:48:17 10° NNW
USA 81 4.5 23:44:20 10° N 23:49:32 55° E 23:50:37 46° ESE
Okean 3 3.7 23:50:46 62° WNW 23:50:46 62° WNW 23:54:45 10° N
Cosmos 1782 Rocket 4.4 23:47:32 10° NNW 23:51:22 40° W 23:51:22 40° W
Lacrosse 5 2.9 23:54:51 32° ESE 23:54:51 32° ESE 23:58:39 10° ENE
